Home   Weather   Norderstedt   Past weeks

Flag for Germany Past Weather in Norderstedt, Schleswig-Holstein, Germany — Yesterday and Last 2 Weeks

Now
48 °F

Rain showers. Partly sunny.


Feels Like: 42 °F
Forecast: 37 / 45 °F
Wind: 15 mph from West

Location: Hamburg-Fuhlsbuettel

Current Time: Dec 11, 2016 at 1:07:45 pm

Latest Report: Dec 11, 2016 at 12:50 pm


Visibility: 4 mi

Pressure: 29.89 "Hg

Humidity: 87%

Dew Point: 45 °F

Location of NorderstedtLocation

Past Weather in Norderstedt — Graph

°F

Norderstedt Temperature Yesterday

Maximum temperature yesterday: 52 °F (at 1:50 am)
Minimum temperature yesterday: 46 °F (at 9:50 am)
Average temperature yesterday: 48 °F

High & Low Weather Summary for the Past Weeks

 TemperatureHumidityPressure
High52 °F (Dec 10, 1:50 am)100% (Nov 26, 11:20 am)30.54 "Hg (Nov 26, 11:20 am)
Low19 °F (Nov 29, 2:20 am)53% (Dec 2, 12:20 pm)29.77 "Hg (Dec 11, 4:50 am)
Average38 °F87%30.24 "Hg
* Reported Nov 26 11:20 am — Dec 11 11:50 am, Norderstedt, Weather by CustomWeather, © 2016

Note: Actual official high and low records may vary slightly from our data, if they occured in-between our weather recording intervals... More about our weather records

Advertising

Norderstedt Weather History for the Previous 24 Hours

Scroll right to see more
 ConditionsComfort  
Time TempWeatherWind HumidityBarometerVisibility
11:50 am
Sun, Dec 11
48 °FBroken clouds.15 mph87%29.89 "HgN/A
11:20 am46 °FBroken clouds.14 mph93%29.89 "HgN/A
10:50 am46 °FPartly sunny.14 mph93%29.89 "HgN/A
10:20 am45 °FPartly sunny.12 mph100%29.89 "HgN/A
9:50 am45 °FSprinkles. Broken clouds.10 mph93%29.86 "HgN/A
9:20 am45 °FSprinkles. Broken clouds.9 mph93%29.86 "HgN/A
8:50 am43 °FPartly sunny.9 mph93%29.86 "HgN/A
8:20 am45 °FLight rain. Partly cloudy.10 mph93%29.83 "HgN/A
7:50 am43 °FLight rain. Mostly cloudy.12 mph100%29.83 "HgN/A
7:20 am43 °FLight rain. Partly cloudy.14 mph93%29.83 "HgN/A
6:50 am43 °FRain. Passing clouds.9 mph100%29.80 "HgN/A
6:20 am45 °FLight rain. Passing clouds.9 mph93%29.77 "HgN/A
5:50 am45 °FRain. Low clouds.6 mph100%29.77 "Hg4 mi
5:20 am45 °FRain. Low clouds.5 mph100%29.77 "Hg4 mi
4:50 am45 °FRain. Low clouds.2 mph100%29.77 "Hg4 mi
4:20 am45 °FRain. Low clouds.No wind100%29.80 "Hg4 mi
3:50 am46 °FLight rain. Low clouds.2 mph93%29.80 "Hg5 mi
3:20 am46 °FLight rain. Low clouds.3 mph93%29.83 "Hg5 mi
2:50 am46 °FLight rain. Low clouds.7 mph93%29.86 "Hg5 mi
2:20 am45 °FLight rain. Low clouds.7 mph100%29.89 "Hg5 mi
1:50 am46 °FLight rain. Low clouds.8 mph93%29.92 "Hg5 mi
1:20 am46 °FLight rain. Low clouds.8 mph93%29.92 "Hg4 mi
12:50 am46 °FLight rain. Fog.7 mph93%29.95 "Hg3 mi
12:20 am46 °FDrizzle. Fog.8 mph100%29.95 "Hg1 mi
11:50 pm
Sat, Dec 10
46 °FDrizzle. Fog.8 mph100%29.98 "Hg1 mi
11:20 pm46 °FDrizzle. Fog.8 mph100%29.98 "Hg1 mi
10:50 pm46 °FDrizzle. Fog.10 mph100%30.01 "Hg1 mi
10:20 pm46 °FDrizzle. Fog.9 mph100%30.01 "Hg1 mi
9:50 pm46 °FDrizzle. Fog.12 mph100%30.01 "Hg1 mi
9:20 pm46 °FDrizzle. Fog.10 mph100%30.04 "Hg1 mi
8:50 pm46 °FDrizzle. Fog.9 mph100%30.04 "Hg1 mi
8:20 pm48 °FDrizzle. Fog.8 mph94%30.07 "Hg1 mi
7:50 pm48 °FDrizzle. Fog.8 mph94%30.07 "Hg1 mi
7:20 pm48 °FDrizzle. Fog.9 mph94%30.07 "Hg1 mi
6:50 pm48 °FDrizzle. Fog.8 mph94%30.07 "Hg1 mi
6:20 pm48 °FDrizzle. Fog.8 mph94%30.07 "Hg1 mi
5:50 pm48 °FDrizzle. Fog.8 mph94%30.07 "Hg1 mi
5:20 pm48 °FDrizzle. Fog.9 mph94%30.07 "Hg1 mi
4:50 pm48 °FDrizzle. Fog.8 mph94%30.07 "Hg1 mi
4:20 pm48 °FDrizzle. Fog.10 mph94%30.07 "Hg1 mi
3:50 pm48 °FFog.8 mph94%30.07 "Hg2 mi
3:20 pm48 °FFog.10 mph94%30.07 "Hg2 mi
2:50 pm48 °FFog.9 mph94%30.07 "Hg2 mi
2:20 pm48 °FFog.8 mph94%30.07 "Hg2 mi
1:50 pm48 °FDrizzle. Fog.10 mph94%30.07 "Hg2 mi
1:20 pm48 °FFog.10 mph94%30.07 "Hg2 mi
Weather by CustomWeather, © 2016

See weather overviewHow to use our weather pages